Location: Kielce
(50.8833°N, 20.6167°E)
Time: 22:22:54
(UTC+02:00)

SR - Pass Details

Date: 21 April 2021
Orbit: 573 x 882 km, 66.7° (Epoch: 09 May)

Event Time Altitude Azimuth Distance (km) Brightness Sun altitude
Rises 18:04:25 0° 310° (NW) 3,457 ? 14.3°
Reaches altitude 10° 18:08:26 10° 284° (WNW) 2,471 ? 13.7°
Maximum altitude 18:10:48 13° 259° (W) 2,243 ? 13.3°
Drops below altitude 10° 18:13:08 10° 234° (SW) 2,395 ? 13.0°
Sets 18:16:54 0° 207° (SSW) 3,248 ? 12.4°
